| time (UTC) | temp F | wind direction | speed MPH | gust MPH | rain 1hr in | rain 24hr in | rain mn in | humidity % | barometer mb |
| 20260901045026 | 66 | 0 | 0.0 | 2.0 | 0.00 | 0.00 | 0.00 | 82 | 1013.9 |
| 20260901044547 | 66 | 0 | 0.0 | 2.0 | 0.00 | 0.00 | 0.00 | 82 | 1013.9 |
| 20260901044026 | 67 | 0 | 0.0 | 2.0 | 0.00 | 0.00 | 0.00 | 81 | 1013.9 |
| 20260901043526 | 67 | 0 | 0.0 | 2.0 | 0.00 | 0.00 | 0.00 | 79 | 1013.9 |
| 20260901043043 | 68 | 165 | 0.0 | 2.0 | 0.00 | 0.00 | 0.00 | 76 | 1014.0 |
| 20260901042527 | 68 | 0 | 0.0 | 1.0 | 0.00 | 0.00 | 0.00 | 74 | 1013.8 |
| 20260901042029 | 68 | 0 | 0.0 | 0.0 | 0.00 | 0.00 | 0.00 | 74 | 1013.8 |
| 20260901041542 | 68 | 0 | 0.0 | 1.0 | 0.00 | 0.00 | 0.00 | 74 | 1013.8 |
| 20260901041029 | 68 | 0 | 0.0 | 1.0 | 0.00 | 0.00 | 0.00 | 74 | 1013.7 |
| 20260901040529 | 68 | 0 | 0.0 | 1.0 | 0.00 | 0.00 | 0.00 | 74 | 1013.7 |
| 20260901040056 | 68 | 0 | 0.0 | 0.0 | 0.00 | 0.00 | 0.00 | 74 | 1013.5 |
| 20260901035526 | 69 | 0 | 0.0 | 0.0 | 0.00 | 0.00 | 0.00 | 74 | 1013.4 |
| 20260901035029 | 69 | 0 | 0.0 | 0.0 | 0.00 | 0.00 | 0.00 | 74 | 1013.4 |
| 20260901034545 | 69 | 0 | 0.0 | 0.0 | 0.00 | 0.00 | 0.00 | 74 | 1013.4 |
| 20260901034026 | 69 | 0 | 0.0 | 0.0 | 0.00 | 0.00 | 0.00 | 73 | 1013.4 |
| 20260901033524 | 69 | 0 | 0.0 | 0.0 | 0.00 | 0.00 | 0.00 | 74 | 1013.4 |
| 20260901033052 | 69 | 0 | 0.0 | 0.0 | 0.00 | 0.00 | 0.00 | 74 | 1013.4 |
| 20260901032526 | 70 | 0 | 0.0 | 1.0 | 0.00 | 0.00 | 0.00 | 75 | 1013.5 |
| 20260901032024 | 70 | 0 | 0.0 | 2.0 | 0.00 | 0.00 | 0.00 | 74 | 1013.6 |
| 20260901031553 | 70 | 159 | 0.0 | 2.0 | 0.00 | 0.00 | 0.00 | 72 | 1013.5 |
| 20260901031025 | 71 | 0 | 0.0 | 2.0 | 0.00 | 0.00 | 0.00 | 70 | 1013.5 |
| 20260901030528 | 71 | 0 | 0.0 | 1.0 | 0.00 | 0.00 | 0.00 | 70 | 1013.5 |
| 20260901030050 | 71 | 0 | 0.0 | 1.0 | 0.00 | 0.00 | 0.00 | 70 | 1013.4 |
| 20260901025530 | 71 | 0 | 0.0 | 1.0 | 0.00 | 0.00 | 0.00 | 71 | 1013.4 |
| 20260901025028 | 71 | 0 | 0.0 | 1.0 | 0.00 | 0.00 | 0.00 | 71 | 1013.3 |
| 20260901024548 | 71 | 0 | 0.0 | 2.0 | 0.00 | 0.00 | 0.00 | 72 | 1013.3 |
| 20260901024027 | 71 | 0 | 0.0 | 3.0 | 0.00 | 0.00 | 0.00 | 71 | 1013.3 |
| 20260901023531 | 72 | 167 | 0.0 | 3.0 | 0.00 | 0.00 | 0.00 | 69 | 1013.2 |
| 20260901023044 | 72 | 0 | 0.0 | 4.0 | 0.00 | 0.00 | 0.00 | 68 | 1013.2 |
| 20260901022528 | 72 | 167 | 0.0 | 4.0 | 0.00 | 0.00 | 0.00 | 67 | 1013.2 |
| 20260901022026 | 73 | 159 | 0.0 | 4.0 | 0.00 | 0.00 | 0.00 | 66 | 1013.1 |
| 20260901021542 | 73 | 0 | 0.0 | 4.0 | 0.00 | 0.00 | 0.00 | 66 | 1013.0 |
| 20260901021024 | 73 | 170 | 0.0 | 2.0 | 0.00 | 0.00 | 0.00 | 65 | 1013.1 |
| 20260901020529 | 73 | 178 | 0.0 | 4.0 | 0.00 | 0.00 | 0.00 | 65 | 1013.0 |
| 20260901020043 | 74 | 173 | 0.0 | 4.0 | 0.00 | 0.00 | 0.00 | 65 | 1013.0 |
| 20260901015524 | 74 | 162 | 0.0 | 4.0 | 0.00 | 0.00 | 0.00 | 64 | 1013.0 |
| 20260901015029 | 75 | 171 | 1.0 | 4.0 | 0.00 | 0.00 | 0.00 | 63 | 1012.9 |
| 20260901014551 | 75 | 167 | 0.0 | 3.0 | 0.00 | 0.00 | 0.00 | 61 | 1012.8 |
| 20260901014029 | 75 | 167 | 0.0 | 3.0 | 0.00 | 0.00 | 0.00 | 61 | 1012.8 |
| 20260901013528 | 76 | 0 | 0.0 | 2.0 | 0.00 | 0.00 | 0.00 | 61 | 1012.8 |
| 20260901013049 | 76 | 0 | 0.0 | 2.0 | 0.00 | 0.00 | 0.00 | 59 | 1012.8 |
| 20260901012524 | 77 | 186 | 0.0 | 2.0 | 0.00 | 0.00 | 0.00 | 56 | 1012.7 |
| 20260901012027 | 77 | 176 | 0.0 | 3.0 | 0.00 | 0.00 | 0.00 | 54 | 1012.5 |
| 20260901011540 | 78 | 163 | 0.0 | 3.0 | 0.00 | 0.00 | 0.00 | 53 | 1012.5 |
| 20260901011028 | 78 | 175 | 0.0 | 2.0 | 0.00 | 0.00 | 0.00 | 53 | 1012.4 |
| 20260901010527 | 78 | 0 | 0.0 | 3.0 | 0.00 | 0.00 | 0.00 | 53 | 1012.4 |
| 20260901010050 | 78 | 0 | 0.0 | 4.0 | 0.00 | 0.00 | 0.00 | 53 | 1012.4 |
| 20260901005528 | 79 | 180 | 1.0 | 4.0 | 0.00 | 0.00 | 0.00 | 52 | 1012.4 |
| 20260901005026 | 80 | 169 | 1.0 | 4.0 | 0.00 | 0.00 | 0.00 | 52 | 1012.5 |
| 20260901004549 | 80 | 202 | 0.0 | 3.0 | 0.00 | 0.00 | 0.00 | 51 | 1012.5 |
| 20260901004028 | 80 | 176 | 0.0 | 3.0 | 0.00 | 0.00 | 0.00 | 51 | 1012.5 |
| 20260901003528 | 81 | 182 | 1.0 | 5.0 | 0.00 | 0.00 | 0.00 | 50 | 1012.4 |
| 20260901003053 | 81 | 174 | 1.0 | 5.0 | 0.00 | 0.00 | 0.00 | 49 | 1012.5 |
| 20260901002529 | 82 | 167 | 1.0 | 3.0 | 0.00 | 0.00 | 0.00 | 48 | 1012.4 |
| 20260901002030 | 82 | 184 | 1.0 | 4.0 | 0.00 | 0.00 | 0.00 | 46 | 1012.4 |
| 20260901001553 | 82 | 0 | 1.0 | 4.0 | 0.00 | 0.00 | 0.00 | 45 | 1012.4 |
| 20260901001027 | 83 | 217 | 1.0 | 3.0 | 0.00 | 0.00 | 0.00 | 44 | 1012.4 |
| 20260901000529 | 83 | 180 | 1.0 | 4.0 | 0.00 | 0.00 | 0.00 | 43 | 1012.3 |
| 20260901000049 | 84 | 186 | 1.0 | 4.0 | 0.00 | 0.00 | 0.00 | 43 | 1012.4 |
| 20260831235528 | 84 | 167 | 1.0 | 4.0 | 0.00 | 0.00 | 0.00 | 42 | 1012.4 |
| 20260831235029 | 85 | 194 | 1.0 | 4.0 | 0.00 | 0.00 | 0.00 | 42 | 1012.5 |
| 20260831234549 | 85 | 231 | 1.0 | 7.0 | 0.00 | 0.00 | 0.00 | 41 | 1012.4 |
| 20260831234028 | 86 | 215 | 0.0 | 7.0 | 0.00 | 0.00 | 0.00 | 41 | 1012.4 |
| 20260831233531 | 86 | 273 | 1.0 | 5.0 | 0.00 | 0.00 | 0.00 | 42 | 1012.3 |
| 20260831233048 | 86 | 236 | 1.0 | 4.0 | 0.00 | 0.00 | 0.00 | 41 | 1012.3 |
| 20260831232528 | 87 | 0 | 0.0 | 4.0 | 0.00 | 0.00 | 0.00 | 40 | 1012.3 |
| 20260831232028 | 87 | 234 | 1.0 | 4.0 | 0.00 | 0.00 | 0.00 | 41 | 1012.4 |
| 20260831231546 | 86 | 84 | 0.0 | 4.0 | 0.00 | 0.00 | 0.00 | 41 | 1012.4 |
| 20260831231029 | 86 | 0 | 1.0 | 7.0 | 0.00 | 0.00 | 0.00 | 40 | 1012.3 |
| 20260831230528 | 87 | 124 | 2.0 | 7.0 | 0.00 | 0.00 | 0.00 | 40 | 1012.3 |
| 20260831230100 | 87 | 244 | 3.0 | 7.0 | 0.00 | 0.00 | 0.00 | 39 | 1012.3 |
| 20260831225527 | 87 | 181 | 1.0 | 4.0 | 0.00 | 0.00 | 0.00 | 38 | 1012.5 |
| 20260831225032 | 88 | 254 | 1.0 | 4.0 | 0.00 | 0.00 | 0.00 | 38 | 1012.4 |
| 20260831224554 | 88 | 0 | 1.0 | 3.0 | 0.00 | 0.00 | 0.00 | 37 | 1012.4 |
| 20260831224029 | 88 | 293 | 0.0 | 7.0 | 0.00 | 0.00 | 0.00 | 37 | 1012.5 |
| 20260831223529 | 87 | 269 | 3.0 | 7.0 | 0.00 | 0.00 | 0.00 | 36 | 1012.3 |
| 20260831223041 | 88 | 294 | 1.0 | 4.0 | 0.00 | 0.00 | 0.00 | 35 | 1012.3 |
| 20260831222529 | 88 | 288 | 1.0 | 7.0 | 0.00 | 0.00 | 0.00 | 34 | 1012.3 |
| 20260831222028 | 87 | 0 | 1.0 | 7.0 | 0.00 | 0.00 | 0.00 | 36 | 1012.2 |
| 20260831221554 | 87 | 271 | 2.0 | 8.0 | 0.00 | 0.00 | 0.00 | 37 | 1012.3 |
| 20260831221029 | 87 | 347 | 1.0 | 8.0 | 0.00 | 0.00 | 0.00 | 36 | 1012.3 |
| 20260831220529 | 87 | 246 | 1.0 | 7.0 | 0.00 | 0.00 | 0.00 | 37 | 1012.3 |
| 20260831220044 | 87 | 306 | 3.0 | 7.0 | 0.00 | 0.00 | 0.00 | 36 | 1012.3 |
| 20260831215529 | 87 | 249 | 1.0 | 7.0 | 0.00 | 0.00 | 0.00 | 37 | 1012.4 |
| 20260831215030 | 87 | 281 | 3.0 | 7.0 | 0.00 | 0.00 | 0.00 | 36 | 1012.3 |
| 20260831214547 | 88 | 307 | 1.0 | 6.0 | 0.00 | 0.00 | 0.00 | 37 | 1012.1 |
| 20260831214028 | 87 | 313 | 2.0 | 6.0 | 0.00 | 0.00 | 0.00 | 37 | 1012.2 |
| 20260831213529 | 88 | 243 | 1.0 | 8.0 | 0.00 | 0.00 | 0.00 | 36 | 1012.1 |
| 20260831213056 | 87 | 311 | 3.0 | 8.0 | 0.00 | 0.00 | 0.00 | 36 | 1012.2 |
| 20260831212528 | 87 | 278 | 5.0 | 8.0 | 0.00 | 0.00 | 0.00 | 37 | 1012.2 |
| 20260831212029 | 87 | 281 | 2.0 | 8.0 | 0.00 | 0.00 | 0.00 | 40 | 1012.1 |
| 20260831211600 | 87 | 213 | 2.0 | 8.0 | 0.00 | 0.00 | 0.00 | 40 | 1012.2 |
| 20260831211028 | 87 | 283 | 2.0 | 8.0 | 0.00 | 0.00 | 0.00 | 41 | 1012.3 |
| 20260831210530 | 87 | 293 | 3.0 | 8.0 | 0.00 | 0.00 | 0.00 | 40 | 1012.3 |
| 20260831210044 | 87 | 279 | 2.0 | 7.0 | 0.00 | 0.00 | 0.00 | 39 | 1012.3 |
| 20260831205529 | 88 | 263 | 2.0 | 6.0 | 0.00 | 0.00 | 0.00 | 39 | 1012.3 |
| 20260831205029 | 87 | 269 | 2.0 | 6.0 | 0.00 | 0.00 | 0.00 | 40 | 1012.4 |
| 20260831204543 | 87 | 321 | 3.0 | 10.0 | 0.00 | 0.00 | 0.00 | 39 | 1012.3 |
| 20260831204027 | 87 | 293 | 4.0 | 10.0 | 0.00 | 0.00 | 0.00 | 41 | 1012.3 |
| 20260831203529 | 86 | 323 | 1.0 | 9.0 | 0.00 | 0.00 | 0.00 | 43 | 1012.3 |
| 20260831203052 | 87 | 316 | 3.0 | 9.0 | 0.00 | 0.00 | 0.00 | 42 | 1012.2 |
| 20260831202531 | 87 | 302 | 2.0 | 9.0 | 0.00 | 0.00 | 0.00 | 43 | 1012.3 |
| 20260831202027 | 87 | 284 | 2.0 | 9.0 | 0.00 | 0.00 | 0.00 | 43 | 1012.5 |
| 20260831201552 | 87 | 200 | 3.0 | 9.0 | 0.00 | 0.00 | 0.00 | 42 | 1012.3 |
| 20260831201028 | 87 | 313 | 2.0 | 6.0 | 0.00 | 0.00 | 0.00 | 41 | 1012.3 |
| 20260831200527 | 87 | 336 | 2.0 | 8.0 | 0.00 | 0.00 | 0.00 | 41 | 1012.3 |
| 20260831200043 | 86 | 294 | 1.0 | 8.0 | 0.00 | 0.00 | 0.00 | 41 | 1012.2 |
| 20260831195529 | 87 | 292 | 3.0 | 9.0 | 0.00 | 0.00 | 0.00 | 41 | 1012.2 |
| 20260831195029 | 86 | 215 | 1.0 | 9.0 | 0.00 | 0.00 | 0.00 | 42 | 1012.0 |
| 20260831194615 | 85 | 286 | 1.0 | 8.0 | 0.00 | 0.00 | 0.00 | 42 | 1012.0 |
| 20260831194032 | 85 | 251 | 4.0 | 8.0 | 0.00 | 0.00 | 0.00 | 41 | 1012.0 |
| 20260831193529 | 86 | 5 | 2.0 | 7.0 | 0.00 | 0.00 | 0.00 | 40 | 1012.1 |
| 20260831193042 | 86 | 101 | 1.0 | 10.0 | 0.00 | 0.00 | 0.00 | 42 | 1012.0 |
| 20260831192529 | 85 | 266 | 5.0 | 10.0 | 0.00 | 0.00 | 0.00 | 40 | 1012.0 |
| 20260831192032 | 86 | 291 | 1.0 | 9.0 | 0.00 | 0.00 | 0.00 | 39 | 1012.0 |
| 20260831191546 | 86 | 259 | 2.0 | 9.0 | 0.00 | 0.00 | 0.00 | 39 | 1012.0 |
| 20260831191029 | 85 | 24 | 3.0 | 9.0 | 0.00 | 0.00 | 0.00 | 42 | 1012.0 |
| 20260831190529 | 86 | 338 | 3.0 | 7.0 | 0.00 | 0.00 | 0.00 | 43 | 1012.0 |
| 20260831190044 | 86 | 253 | 3.0 | 7.0 | 0.00 | 0.00 | 0.00 | 44 | 1012.0 |
| 20260831185529 | 85 | 329 | 1.0 | 9.0 | 0.00 | 0.00 | 0.00 | 46 | 1011.9 |
| 20260831185028 | 84 | 340 | 4.0 | 9.0 | 0.00 | 0.00 | 0.00 | 45 | 1011.9 |
| 20260831184607 | 84 | 324 | 2.0 | 8.0 | 0.00 | 0.00 | 0.00 | 47 | 1012.0 |
| 20260831184026 | 84 | 242 | 3.0 | 8.0 | 0.00 | 0.00 | 0.00 | 46 | 1012.1 |
| 20260831183529 | 83 | 30 | 2.0 | 9.0 | 0.00 | 0.00 | 0.00 | 46 | 1012.0 |
| 20260831183054 | 83 | 318 | 4.0 | 9.0 | 0.00 | 0.00 | 0.00 | 48 | 1012.0 |
| 20260831182530 | 84 | 355 | 4.0 | 9.0 | 0.00 | 0.00 | 0.00 | 46 | 1012.0 |
| 20260831182031 | 85 | 287 | 3.0 | 9.0 | 0.00 | 0.00 | 0.00 | 46 | 1011.9 |
| 20260831181551 | 84 | 360 | 2.0 | 8.0 | 0.00 | 0.00 | 0.00 | 47 | 1012.1 |
| 20260831181027 | 84 | 23 | 3.0 | 9.0 | 0.00 | 0.00 | 0.00 | 46 | 1012.1 |
| 20260831180528 | 83 | 280 | 3.0 | 9.0 | 0.00 | 0.00 | 0.00 | 48 | 1012.1 |
| 20260831180044 | 83 | 293 | 3.0 | 11.0 | 0.00 | 0.00 | 0.00 | 48 | 1012.2 |
| 20260831175529 | 83 | 325 | 5.0 | 11.0 | 0.00 | 0.00 | 0.00 | 50 | 1012.0 |
| 20260831175029 | 82 | 280 | 4.0 | 12.0 | 0.00 | 0.00 | 0.00 | 51 | 1012.0 |
| 20260831174557 | 82 | 271 | 5.0 | 12.0 | 0.00 | 0.00 | 0.00 | 53 | 1012.1 |
| 20260831174030 | 82 | 182 | 4.0 | 9.0 | 0.00 | 0.00 | 0.00 | 53 | 1012.1 |
| 20260831173530 | 83 | 218 | 4.0 | 9.0 | 0.00 | 0.00 | 0.00 | 54 | 1012.1 |
| 20260831173051 | 82 | 238 | 3.0 | 9.0 | 0.00 | 0.00 | 0.00 | 56 | 1012.1 |
| 20260831172529 | 81 | 274 | 5.0 | 9.0 | 0.00 | 0.00 | 0.00 | 57 | 1012.2 |
| 20260831172027 | 81 | 272 | 1.0 | 9.0 | 0.00 | 0.00 | 0.00 | 58 | 1012.2 |
| 20260831171545 | 82 | 314 | 2.0 | 9.0 | 0.00 | 0.00 | 0.00 | 57 | 1012.2 |
| 20260831171029 | 80 | 273 | 2.0 | 8.0 | 0.00 | 0.00 | 0.00 | 57 | 1012.2 |
| 20260831170530 | 80 | 334 | 4.0 | 9.0 | 0.00 | 0.00 | 0.00 | 56 | 1012.2 |
| 20260831170128 | 80 | 20 | 3.0 | 9.0 | 0.00 | 0.00 | 0.00 | 55 | 1012.3 |
| 20260831165528 | 80 | 336 | 3.0 | 10.0 | 0.00 | 0.00 | 0.00 | 56 | 1012.3 |
| 20260831165029 | 79 | 323 | 4.0 | 10.0 | 0.00 | 0.00 | 0.00 | 57 | 1012.3 |
| 20260831164551 | 79 | 297 | 5.0 | 11.0 | 0.00 | 0.00 | 0.00 | 58 | 1012.3 |
| 20260831164028 | 79 | 271 | 4.0 | 11.0 | 0.00 | 0.00 | 0.00 | 60 | 1012.3 |
| 20260831163526 | 79 | 304 | 4.0 | 10.0 | 0.00 | 0.00 | 0.00 | 61 | 1012.2 |
| 20260831163048 | 79 | 301 | 3.0 | 8.0 | 0.00 | 0.00 | 0.00 | 62 | 1012.1 |
| 20260831162531 | 78 | 304 | 4.0 | 11.0 | 0.00 | 0.00 | 0.00 | 62 | 1012.0 |
| 20260831162029 | 78 | 17 | 4.0 | 11.0 | 0.00 | 0.00 | 0.00 | 66 | 1012.0 |
| 20260831161546 | 78 | 294 | 3.0 | 12.0 | 0.00 | 0.00 | 0.00 | 65 | 1012.0 |
| 20260831161028 | 78 | 291 | 5.0 | 12.0 | 0.00 | 0.00 | 0.00 | 65 | 1012.0 |
| 20260831160528 | 77 | 297 | 5.0 | 11.0 | 0.00 | 0.00 | 0.00 | 67 | 1012.1 |
| 20260831160043 | 77 | 298 | 6.0 | 11.0 | 0.00 | 0.00 | 0.00 | 68 | 1012.0 |
| 20260831155529 | 77 | 314 | 2.0 | 11.0 | 0.00 | 0.00 | 0.00 | 72 | 1011.9 |
| 20260831155028 | 77 | 273 | 4.0 | 11.0 | 0.00 | 0.00 | 0.00 | 74 | 1011.9 |
| 20260831154619 | 77 | 349 | 3.0 | 8.0 | 0.00 | 0.00 | 0.00 | 73 | 1011.9 |
| 20260831154027 | 76 | 5 | 3.0 | 11.0 | 0.00 | 0.00 | 0.00 | 74 | 1011.7 |
| 20260831153529 | 76 | 325 | 3.0 | 11.0 | 0.00 | 0.00 | 0.00 | 73 | 1011.7 |
| 20260831153051 | 77 | 319 | 4.0 | 9.0 | 0.00 | 0.00 | 0.00 | 73 | 1011.6 |
| 20260831152529 | 76 | 322 | 3.0 | 10.0 | 0.00 | 0.00 | 0.00 | 73 | 1011.7 |
| 20260831152029 | 76 | 343 | 3.0 | 10.0 | 0.00 | 0.00 | 0.00 | 74 | 1011.5 |
| 20260831151543 | 76 | 309 | 4.0 | 10.0 | 0.00 | 0.00 | 0.00 | 73 | 1011.5 |
| 20260831151025 | 76 | 57 | 4.0 | 10.0 | 0.00 | 0.00 | 0.00 | 76 | 1011.4 |
| 20260831150525 | 75 | 340 | 2.0 | 10.0 | 0.00 | 0.00 | 0.00 | 77 | 1011.4 |
| 20260831150044 | 75 | 330 | 5.0 | 10.0 | 0.00 | 0.00 | 0.00 | 77 | 1011.3 |
| 20260831145525 | 75 | 323 | 4.0 | 9.0 | 0.00 | 0.00 | 0.00 | 78 | 1011.3 |
| 20260831145027 | 75 | 289 | 2.0 | 8.0 | 0.00 | 0.00 | 0.00 | 79 | 1011.3 |
| 20260831144553 | 75 | 5 | 4.0 | 8.0 | 0.00 | 0.00 | 0.00 | 80 | 1011.3 |
| 20260831144026 | 74 | 355 | 2.0 | 8.0 | 0.00 | 0.00 | 0.00 | 81 | 1011.2 |
| 20260831143529 | 74 | 244 | 3.0 | 9.0 | 0.00 | 0.00 | 0.00 | 82 | 1011.2 |
| 20260831143045 | 73 | 298 | 3.0 | 10.0 | 0.00 | 0.00 | 0.00 | 82 | 1011.0 |
| 20260831142526 | 73 | 347 | 4.0 | 10.0 | 0.00 | 0.00 | 0.00 | 82 | 1010.9 |
| 20260831142027 | 73 | 344 | 2.0 | 10.0 | 0.00 | 0.00 | 0.00 | 83 | 1010.9 |
| 20260831141546 | 73 | 257 | 4.0 | 9.0 | 0.00 | 0.00 | 0.00 | 83 | 1010.7 |
| 20260831141025 | 73 | 329 | 4.0 | 8.0 | 0.00 | 0.00 | 0.00 | 84 | 1010.8 |
| 20260831140529 | 72 | 28 | 3.0 | 8.0 | 0.00 | 0.00 | 0.00 | 85 | 1010.6 |
| 20260831140043 | 72 | 341 | 2.0 | 9.0 | 0.00 | 0.00 | 0.00 | 86 | 1010.4 |
| 20260831135528 | 72 | 360 | 2.0 | 10.0 | 0.00 | 0.00 | 0.00 | 85 | 1010.2 |
| 20260831135028 | 72 | 323 | 2.0 | 10.0 | 0.00 | 0.00 | 0.00 | 86 | 1010.3 |
| 20260831134548 | 72 | 11 | 2.0 | 10.0 | 0.00 | 0.00 | 0.00 | 86 | 1010.3 |
| 20260831134025 | 72 | 81 | 4.0 | 12.0 | 0.00 | 0.00 | 0.00 | 87 | 1010.1 |
| 20260831133525 | 72 | 14 | 4.0 | 12.0 | 0.00 | 0.00 | 0.00 | 88 | 1010.0 |
| 20260831133042 | 72 | 342 | 4.0 | 12.0 | 0.00 | 0.00 | 0.00 | 89 | 1009.9 |
| 20260831132524 | 71 | 327 | 6.0 | 10.0 | 0.00 | 0.00 | 0.00 | 90 | 1010.0 |
| 20260831132025 | 71 | 320 | 4.0 | 11.0 | 0.00 | 0.00 | 0.00 | 91 | 1009.7 |
| 20260831131551 | 71 | 283 | 4.0 | 11.0 | 0.00 | 0.00 | 0.00 | 91 | 1009.7 |
| 20260831131027 | 71 | 342 | 3.0 | 9.0 | 0.00 | 0.00 | 0.00 | 92 | 1009.7 |
| 20260831130527 | 71 | 321 | 3.0 | 9.0 | 0.00 | 0.00 | 0.00 | 92 | 1009.8 |
| 20260831130051 | 71 | 302 | 3.0 | 9.0 | 0.00 | 0.00 | 0.00 | 92 | 1009.7 |
| 20260831125526 | 71 | 283 | 3.0 | 9.0 | 0.00 | 0.00 | 0.00 | 92 | 1009.7 |
| 20260831125029 | 71 | 238 | 3.0 | 8.0 | 0.00 | 0.00 | 0.00 | 92 | 1009.7 |
| 20260831124543 | 71 | 251 | 3.0 | 8.0 | 0.00 | 0.00 | 0.00 | 92 | 1009.6 |
| 20260831124027 | 71 | 304 | 3.0 | 6.0 | 0.00 | 0.00 | 0.00 | 92 | 1009.4 |
| 20260831123525 | 71 | 292 | 2.0 | 6.0 | 0.00 | 0.00 | 0.00 | 92 | 1009.4 |
| 20260831123045 | 71 | 269 | 3.0 | 6.0 | 0.00 | 0.00 | 0.00 | 92 | 1009.2 |
| 20260831122527 | 71 | 0 | 1.0 | 3.0 | 0.00 | 0.00 | 0.00 | 92 | 1009.0 |
| 20260831122025 | 71 | 0 | 0.0 | 3.0 | 0.00 | 0.00 | 0.00 | 92 | 1008.8 |
| 20260831121541 | 71 | 227 | 1.0 | 3.0 | 0.00 | 0.00 | 0.00 | 92 | 1008.6 |
| 20260831121029 | 71 | 0 | 0.0 | 3.0 | 0.00 | 0.00 | 0.00 | 92 | 1008.5 |
| 20260831120529 | 71 | 290 | 0.0 | 3.0 | 0.00 | 0.00 | 0.00 | 92 | 1008.4 |
| 20260831120049 | 71 | 284 | 0.0 | 2.0 | 0.00 | 0.00 | 0.00 | 92 | 1008.3 |
| 20260831115528 | 71 | 281 | 1.0 | 3.0 | 0.00 | 0.00 | 0.00 | 92 | 1008.2 |
| 20260831115029 | 71 | 271 | 1.0 | 3.0 | 0.00 | 0.00 | 0.00 | 92 | 1008.2 |
| 20260831114546 | 71 | 258 | 1.0 | 3.0 | 0.00 | 0.00 | 0.00 | 92 | 1008.2 |
| 20260831114031 | 71 | 291 | 1.0 | 4.0 | 0.00 | 0.00 | 0.00 | 92 | 1008.1 |
| 20260831113529 | 71 | 275 | 0.0 | 4.0 | 0.00 | 0.00 | 0.00 | 92 | 1008.1 |
| 20260831113102 | 71 | 287 | 1.0 | 4.0 | 0.00 | 0.00 | 0.00 | 92 | 1008.1 |
| 20260831112529 | 71 | 0 | 1.0 | 7.0 | 0.00 | 0.00 | 0.00 | 92 | 1008.1 |
| 20260831112029 | 71 | 299 | 2.0 | 7.0 | 0.00 | 0.00 | 0.00 | 92 | 1008.2 |
| 20260831111541 | 71 | 278 | 1.0 | 4.0 | 0.00 | 0.00 | 0.00 | 92 | 1008.1 |
| 20260831111028 | 71 | 275 | 0.0 | 2.0 | 0.00 | 0.00 | 0.00 | 91 | 1008.2 |
| 20260831110530 | 71 | 203 | 0.0 | 2.0 | 0.00 | 0.00 | 0.00 | 92 | 1008.1 |
| 20260831110048 | 71 | 228 | 0.0 | 2.0 | 0.00 | 0.00 | 0.00 | 91 | 1007.9 |
| 20260831105526 | 71 | 214 | 0.0 | 3.0 | 0.00 | 0.00 | 0.00 | 91 | 1007.7 |
| 20260831105026 | 71 | 147 | 0.0 | 4.0 | 0.00 | 0.00 | 0.00 | 91 | 1007.6 |
| 20260831104546 | 71 | 165 | 1.0 | 4.0 | 0.00 | 0.00 | 0.00 | 92 | 1007.6 |
| 20260831104025 | 71 | 164 | 1.0 | 4.0 | 0.00 | 0.00 | 0.00 | 92 | 1007.7 |
| 20260831103528 | 71 | 0 | 0.0 | 4.0 | 0.00 | 0.00 | 0.00 | 92 | 1007.7 |
| 20260831103100 | 71 | 254 | 1.0 | 4.0 | 0.00 | 0.00 | 0.00 | 92 | 1007.8 |
| 20260831102528 | 71 | 176 | 0.0 | 3.0 | 0.00 | 0.00 | 0.00 | 92 | 1007.6 |
| 20260831102029 | 71 | 221 | 0.0 | 3.0 | 0.00 | 0.00 | 0.00 | 91 | 1007.5 |
| 20260831101550 | 71 | 0 | 0.0 | 4.0 | 0.00 | 0.00 | 0.00 | 91 | 1007.5 |
| 20260831101030 | 70 | 0 | 0.0 | 6.0 | 0.00 | 0.00 | 0.00 | 91 | 1007.6 |
| 20260831100530 | 71 | 0 | 1.0 | 6.0 | 0.00 | 0.00 | 0.00 | 91 | 1007.5 |
| 20260831100048 | 71 | 240 | 1.0 | 6.0 | 0.00 | 0.00 | 0.00 | 91 | 1007.5 |
| 20260831095528 | 71 | 230 | 1.0 | 5.0 | 0.00 | 0.00 | 0.00 | 91 | 1007.4 |
| 20260831095028 | 71 | 197 | 2.0 | 5.0 | 0.00 | 0.00 | 0.00 | 91 | 1007.3 |
| 20260831094544 | 71 | 146 | 2.0 | 6.0 | 0.00 | 0.00 | 0.00 | 91 | 1007.3 |
| 20260831094029 | 71 | 213 | 1.0 | 6.0 | 0.00 | 0.00 | 0.00 | 91 | 1007.3 |
| 20260831093526 | 71 | 147 | 1.0 | 6.0 | 0.00 | 0.00 | 0.00 | 91 | 1007.5 |
| 20260831093048 | 71 | 192 | 1.0 | 6.0 | 0.00 | 0.00 | 0.00 | 91 | 1007.5 |
| 20260831092529 | 71 | 228 | 3.0 | 6.0 | 0.00 | 0.00 | 0.00 | 91 | 1007.4 |
| 20260831092029 | 71 | 193 | 2.0 | 7.0 | 0.00 | 0.00 | 0.00 | 91 | 1007.4 |
| 20260831091556 | 71 | 165 | 2.0 | 7.0 | 0.00 | 0.00 | 0.00 | 91 | 1007.3 |
| 20260831091026 | 71 | 160 | 3.0 | 7.0 | 0.00 | 0.00 | 0.00 | 91 | 1007.4 |
| 20260831090530 | 71 | 168 | 2.0 | 7.0 | 0.00 | 0.00 | 0.00 | 91 | 1007.4 |
| 20260831090057 | 70 | 211 | 2.0 | 7.0 | 0.00 | 0.00 | 0.00 | 91 | 1007.3 |
| 20260831085528 | 70 | 206 | 1.0 | 3.0 | 0.00 | 0.00 | 0.00 | 91 | 1007.3 |
| 20260831085028 | 70 | 165 | 0.0 | 4.0 | 0.00 | 0.00 | 0.00 | 90 | 1007.2 |
| 20260831084546 | 70 | 213 | 1.0 | 8.0 | 0.00 | 0.00 | 0.00 | 90 | 1007.2 |
| 20260831084029 | 71 | 198 | 1.0 | 9.0 | 0.00 | 0.00 | 0.00 | 90 | 1007.1 |
| 20260831083528 | 71 | 189 | 3.0 | 9.0 | 0.00 | 0.00 | 0.00 | 90 | 1007.2 |
| 20260831083043 | 71 | 158 | 2.0 | 8.0 | 0.00 | 0.00 | 0.00 | 90 | 1007.0 |
| 20260831082528 | 71 | 188 | 1.0 | 5.0 | 0.00 | 0.00 | 0.00 | 90 | 1007.0 |
| 20260831082029 | 71 | 228 | 2.0 | 7.0 | 0.00 | 0.00 | 0.00 | 90 | 1007.0 |
| 20260831081553 | 71 | 0 | 1.0 | 7.0 | 0.00 | 0.00 | 0.00 | 90 | 1006.9 |
| 20260831081031 | 71 | 113 | 2.0 | 7.0 | 0.00 | 0.00 | 0.00 | 90 | 1006.8 |
| 20260831080530 | 71 | 0 | 0.0 | 5.0 | 0.00 | 0.00 | 0.00 | 90 | 1006.8 |
| 20260831075526 | 71 | 205 | 1.0 | 4.0 | 0.00 | 0.00 | 0.00 | 90 | 1006.6 |
| 20260831075030 | 71 | 0 | 0.0 | 4.0 | 0.00 | 0.00 | 0.00 | 90 | 1006.7 |
| 20260831074545 | 71 | 215 | 1.0 | 4.0 | 0.00 | 0.00 | 0.00 | 90 | 1006.8 |
| 20260831074029 | 71 | 180 | 1.0 | 5.0 | 0.00 | 0.00 | 0.00 | 89 | 1006.7 |
| 20260831073529 | 71 | 192 | 0.0 | 6.0 | 0.00 | 0.00 | 0.00 | 89 | 1006.7 |
| 20260831073044 | 71 | 123 | 0.0 | 6.0 | 0.00 | 0.00 | 0.00 | 89 | 1006.9 |
| 20260831072531 | 71 | 150 | 2.0 | 6.0 | 0.00 | 0.00 | 0.00 | 89 | 1006.9 |
| 20260831072032 | 71 | 92 | 1.0 | 5.0 | 0.00 | 0.00 | 0.00 | 89 | 1006.9 |
| 20260831071552 | 71 | 155 | 1.0 | 6.0 | 0.00 | 0.00 | 0.00 | 88 | 1007.0 |
| 20260831071028 | 71 | 197 | 1.0 | 6.0 | 0.00 | 0.00 | 0.00 | 88 | 1006.8 |
| 20260831070529 | 71 | 157 | 1.0 | 6.0 | 0.00 | 0.00 | 0.00 | 88 | 1006.9 |
| 20260831070049 | 71 | 153 | 0.0 | 6.0 | 0.00 | 0.00 | 0.00 | 88 | 1007.0 |
| 20260831065529 | 71 | 0 | 1.0 | 6.0 | 0.00 | 0.00 | 0.00 | 88 | 1007.0 |
| 20260831065029 | 72 | 138 | 1.0 | 6.0 | 0.00 | 0.00 | 0.00 | 88 | 1006.9 |
| 20260831064545 | 72 | 155 | 2.0 | 8.0 | 0.00 | 0.00 | 0.00 | 88 | 1007.0 |
| 20260831064028 | 72 | 212 | 2.0 | 8.0 | 0.00 | 0.00 | 0.00 | 88 | 1006.9 |
| 20260831063528 | 72 | 140 | 3.0 | 7.0 | 0.00 | 0.00 | 0.00 | 87 | 1006.9 |
| 20260831063045 | 72 | 140 | 2.0 | 8.0 | 0.00 | 0.00 | 0.00 | 87 | 1006.7 |
| 20260831062528 | 72 | 243 | 3.0 | 8.0 | 0.00 | 0.00 | 0.00 | 87 | 1006.9 |
| 20260831062029 | 72 | 202 | 3.0 | 11.0 | 0.00 | 0.00 | 0.00 | 87 | 1006.9 |
| 20260831061552 | 72 | 93 | 3.0 | 11.0 | 0.00 | 0.00 | 0.00 | 87 | 1006.9 |
| 20260831061031 | 72 | 178 | 3.0 | 7.0 | 0.00 | 0.00 | 0.00 | 87 | 1007.0 |
| 20260831060529 | 72 | 136 | 2.0 | 7.0 | 0.00 | 0.00 | 0.00 | 87 | 1007.1 |
| 20260831060049 | 72 | 219 | 2.0 | 7.0 | 0.00 | 0.00 | 0.00 | 87 | 1007.1 |
| 20260831055528 | 72 | 121 | 3.0 | 9.0 | 0.00 | 0.00 | 0.00 | 86 | 1007.0 |
| 20260831055028 | 73 | 199 | 3.0 | 9.0 | 0.00 | 0.00 | 0.00 | 86 | 1007.0 |
| 20260831054545 | 73 | 178 | 2.0 | 9.0 | 0.00 | 0.00 | 0.00 | 86 | 1007.0 |
| 20260831054030 | 73 | 145 | 4.0 | 8.0 | 0.00 | 0.00 | 0.00 | 86 | 1006.9 |
| 20260831053530 | 73 | 197 | 1.0 | 6.0 | 0.00 | 0.00 | 0.00 | 86 | 1006.9 |
| 20260831053044 | 73 | 80 | 2.0 | 8.0 | 0.00 | 0.00 | 0.00 | 87 | 1007.0 |
| 20260831052529 | 73 | 107 | 2.0 | 9.0 | 0.00 | 0.00 | 0.00 | 87 | 1007.0 |
| 20260831052028 | 73 | 161 | 2.0 | 9.0 | 0.00 | 0.00 | 0.00 | 87 | 1006.9 |
| 20260831051550 | 73 | 229 | 1.0 | 7.0 | 0.00 | 0.00 | 0.00 | 87 | 1007.0 |
| 20260831051026 | 73 | 176 | 2.0 | 8.0 | 0.00 | 0.00 | 0.00 | 87 | 1007.0 |
| 20260831050530 | 73 | 119 | 4.0 | 8.0 | 0.00 | 0.00 | 0.00 | 87 | 1007.1 |
| 20260831050049 | 73 | 207 | 2.0 | 5.0 | 0.00 | 0.00 | 0.00 | 87 | 1007.2 |
| 20260831045528 | 73 | 67 | 2.0 | 8.0 | 0.00 | 0.00 | 0.00 | 87 | 1007.4 |